Waarnemingen

Advertentie
Mijn weer
Strasbourg, Frankrijk (7190): temperatuur & dauwpunt: 22.05.2017 06:00:00 - 28.05.2017 06:00:00 (CEST)Strasbourg, Frankrijk (7190): temperatuur 5cm: 22.05.2017 06:00:00 - 28.05.2017 06:00:00 (CEST)Strasbourg, Frankrijk (7190): temperatuur -20cm & temperatuur -100cm: 22.05.2017 06:00:00 - 28.05.2017 06:00:00 (CEST)Strasbourg, Frankrijk (7190): windsnelheid & windstoten: 22.05.2017 06:00:00 - 28.05.2017 06:00:00 (CEST)Strasbourg, Frankrijk (7190): windrichting: 22.05.2017 06:00:00 - 28.05.2017 06:00:00 (CEST)Strasbourg, Frankrijk (7190): luchtdruk: 22.05.2017 06:00:00 - 28.05.2017 06:00:00 (CEST)Strasbourg, Frankrijk (7190): zicht: 22.05.2017 06:00:00 - 28.05.2017 06:00:00 (CEST)Strasbourg, Frankrijk (7190): Zonneschijnduur: 22.05.2017 06:00:00 - 28.05.2017 06:00:00 (CEST)Strasbourg, Frankrijk (7190): neerslag: 22.05.2017 06:00:00 - 28.05.2017 06:00:00 (CEST)
Datum & Tijd tt [°C] td [°C] tt 5cm [°C] tt -20cm [°C] tt -100cm [°C] ff [km/u] ff [kn] fx [km/u] fx [kn] dd ppp [hPa] vv [km] sd [min] rr [mm]
28.05.2017 06:00:00 15,7 12,6 13,3 24,0 17,0 4 2 6 3 WZW 1018,8 32 0 0,0
28.05.2017 05:00:00 16,1 13,2 14,0 24,3 17,0 4 2 6 3 W 1018,8 29 0 0,0
28.05.2017 04:00:00 16,4 12,9 14,1 24,6 17,0 3 2 7 4 Z 1018,6 36 0 0,0
28.05.2017 03:00:00 17,6 13,3 14,4 25,0 17,0 3 2 5 3 NNO 1018,4 46 0 0,0
28.05.2017 02:00:00 17,8 12,9 15,1 25,3 17,0 2 1 10 5 N 1018,5 44 0 0,0
28.05.2017 01:00:00 18,7 13,1 15,5 25,6 17,0 5 3 7 4 W 1018,3 48 0 0,0
28.05.2017 00:00:00 20,2 12,9 17,2 25,9 16,9 3 2 9 5 WNW 1018,0 45 0 0,0
27.05.2017 23:00:00 21,7 12,3 17,8 26,1 16,9 3 1 6 4 W 1017,7 43 0 0,0
27.05.2017 22:00:00 23,1 12,7 19,6 26,3 16,9 4 2 8 4 N 1017,4 60 0 0,0
27.05.2017 21:00:00 27,5 10,2 21,9 26,3 16,9 6 3 9 5 N 1016,7 60 47 0,0
27.05.2017 20:00:00 30,0 11,0 31,3 26,1 16,9 3 2 13 7 ONO 1016,2 60 60 0,0
27.05.2017 19:00:00 31,6 9,8 34,9 25,7 16,8 0 0 8 4 N 1015,5 52 60 0,0
27.05.2017 18:00:00 31,4 9,6 36,0 25,2 16,9 3 2 12 7 NNO 1015,9 50 60 0,0
27.05.2017 17:00:00 31,3 10,1 36,0 24,7 16,9 5 3 16 9 O 1016,0 56 60 0,0
27.05.2017 16:00:00 30,8 8,5 35,7 24,0 16,9 6 3 14 8 OZO 1016,5 55 60 0,0
27.05.2017 15:00:00 30,1 10,6 35,0 23,3 16,8 5 3 15 8 Z 1016,7 31 60 0,0
27.05.2017 14:00:00 28,9 11,5 33,6 22,7 16,8 4 2 14 8 OZO 1017,3 36 60 0,0
27.05.2017 13:00:00 27,4 11,4 33,3 22,2 16,8 6 3 17 9 ZZW 1017,9 58 60 0,0
27.05.2017 12:00:00 26,3 9,2 31,2 21,8 16,8 7 4 17 9 ZO 1018,3 32 60 0,0
27.05.2017 11:00:00 25,0 9,3 30,4 21,6 16,8 4 2 14 7 ZO 1018,7 33 60 0,0
27.05.2017 10:00:00 23,0 12,6 27,9 21,6 16,8 7 4 13 7 OZO 1019,0 17 60 0,0
27.05.2017 09:00:00 21,3 12,7 23,9 21,8 16,7 2 1 8 4 ONO 1019,2 20 60 0,0
27.05.2017 08:00:00 18,7 12,9 18,8 22,0 16,7 5 3 9 5 NNW 1019,2 34 60 0,0
27.05.2017 07:00:00 15,5 12,3 11,3 22,3 16,7 2 1 5 3 NW 1019,3 30 60 0,0
27.05.2017 06:00:00 12,6 11,3 9,9 22,7 16,7 2 1 7 4 N 1019,0 23 2 0,0
27.05.2017 05:00:00 12,9 11,3 10,2 23,0 16,7 2 1 9 5 NNO 1018,5 26 0 0,0
27.05.2017 04:00:00 13,4 11,1 10,7 23,3 16,7 2 1 9 5 WNW 1018,1 33 0 0,0
27.05.2017 03:00:00 15,3 11,7 13,0 23,6 16,7 3 2 9 5 WNW 1017,9 38 0 0,0
27.05.2017 02:00:00 16,0 12,0 13,5 24,0 16,6 5 3 10 6 W 1018,0 49 0 0,0
27.05.2017 01:00:00 17,5 12,2 14,8 24,2 16,6 5 3 11 6 N 1018,0 60 0 0,0
27.05.2017 00:00:00 19,3 12,3 15,9 24,6 16,6 11 6 14 8 NO 1017,9 60 0 0,0
26.05.2017 23:00:00 20,9 12,1 17,6 24,8 16,6 8 4 27 14 N 1017,6 60 0 0,0
26.05.2017 22:00:00 22,6 11,9 21,1 24,9 16,6 16 9 35 19 NO 1017,0 60 0 0,0
26.05.2017 21:00:00 24,0 11,7 22,8 25,0 16,6 21 11 33 18 NO 1016,3 50 60 0,0
26.05.2017 20:00:00 25,5 12,0 26,2 24,9 16,6 23 13 41 22 NNO 1016,1 27 60 0,0
26.05.2017 19:00:00 26,4 11,7 28,6 24,6 16,5 29 15 40 21 NNO 1016,0 25 60 0,0
26.05.2017 18:00:00 27,6 12,4 31,1 24,2 16,5 22 12 36 19 NNO 1016,3 24 60 0,0
26.05.2017 17:00:00 27,1 11,9 30,9 23,7 16,5 23 12 38 20 NNO 1016,6 20 60 0,0
26.05.2017 16:00:00 27,0 11,5 31,4 23,1 16,5 24 13 42 23 NNO 1016,9 30 60 0,0
26.05.2017 15:00:00 26,8 11,7 31,3 22,5 16,5 22 12 38 20 NNO 1017,5 36 60 0,0
26.05.2017 14:00:00 26,1 11,1 30,3 21,9 16,5 18 10 38 20 NO 1018,3 41 60 0,0
26.05.2017 13:00:00 24,7 11,6 28,6 21,4 16,5 15 8 31 17 NNO 1019,0 48 60 0,0
26.05.2017 12:00:00 23,4 11,1 27,6 21,1 16,4 18 10 29 15 NO 1019,6 60 60 0,0
26.05.2017 11:00:00 22,0 11,4 27,1 20,9 16,4 14 8 27 15 NNO 1020,0 60 60 0,0
26.05.2017 10:00:00 20,6 11,8 24,9 20,9 16,4 9 5 19 10 NNO 1020,3 45 60 0,0
26.05.2017 09:00:00 18,7 10,8 22,2 21,1 16,4 10 5 18 10 N 1020,6 47 60 0,0
26.05.2017 08:00:00 17,7 11,0 18,1 21,4 16,4 10 6 19 11 NNO 1020,4 47 60 0,0
26.05.2017 07:00:00 15,7 10,2 13,7 21,6 16,4 14 8 21 11 NNO 1020,3 50 60 0,0
26.05.2017 06:00:00 14,0 9,6 12,2 21,9 16,3 11 6 19 11 NNO 1020,2 49 1 0,0
26.05.2017 05:00:00 14,0 9,6 11,4 22,3 16,3 11 6 16 9 NNO 1020,2 60 0 0,0
26.05.2017 04:00:00 14,6 9,6 12,5 22,6 16,3 11 6 18 10 NNO 1020,3 60 0 0,0
26.05.2017 03:00:00 14,9 9,7 11,9 22,9 16,3 12 7 17 9 NNO 1020,4 60 0 0,0
26.05.2017 02:00:00 15,3 10,1 12,3 23,3 16,3 11 6 16 9 NNO 1020,4 59 0 0,0
26.05.2017 01:00:00 16,3 10,2 12,1 23,5 16,3 9 5 14 8 NNO 1020,5 58 0 0,0
26.05.2017 00:00:00 16,7 10,1 13,3 23,9 16,3 3 2 8 4 N 1020,6 60 0 0,0
25.05.2017 23:00:00 18,2 9,8 13,9 24,1 16,3 7 4 14 8 NO 1020,6 58 0 0,0
25.05.2017 22:00:00 19,9 9,7 17,7 24,3 16,3 10 5 26 14 NNO 1020,4 60 0 0,0
25.05.2017 21:00:00 21,5 9,7 20,3 24,3 16,2 21 11 38 20 NNO 1019,9 57 53 0,0
25.05.2017 20:00:00 22,6 10,1 23,6 24,3 16,2 23 12 38 21 NNO 1019,6 27 60 0,0
25.05.2017 19:00:00 23,7 10,4 26,0 24,0 16,2 23 13 37 20 NNO 1019,8 28 60 0,0
25.05.2017 18:00:00 24,0 9,6 26,9 23,7 16,2 23 12 35 19 NO 1019,9 31 60 0,0
25.05.2017 17:00:00 24,7 10,6 29,0 23,2 16,2 17 9 36 20 NNO 1020,0 32 60 0,0
25.05.2017 16:00:00 24,7 11,3 29,6 22,7 16,2 18 10 34 18 NNO 1020,3 29 60 0,0
25.05.2017 15:00:00 24,1 10,0 25,6 22,2 16,1 16 9 35 19 N 1020,8 27 56 0,0
25.05.2017 14:00:00 23,6 10,6 25,5 21,8 16,1 14 8 29 16 N 1021,3 26 55 0,0
25.05.2017 13:00:00 23,0 11,7 26,0 21,4 16,1 17 9 26 14 N 1021,7 20 53 0,0
25.05.2017 12:00:00 22,1 11,2 23,8 21,2 16,1 13 7 25 14 NNO 1022,2 23 49 0,0
25.05.2017 11:00:00 21,3 13,0 23,9 21,1 16,1 12 6 22 12 NNO 1022,1 11 43 0,0
25.05.2017 10:00:00 20,3 13,3 23,3 21,1 16,1 8 5 22 12 NO 1022,2 18 60 0,0
25.05.2017 09:00:00 19,1 12,8 21,9 21,2 16,1 17 9 28 15 NNO 1022,1 18 60 0,0
25.05.2017 08:00:00 17,9 12,8 17,5 21,5 16,1 13 7 18 10 N 1022,0 20 60 0,0
25.05.2017 07:00:00 15,8 12,4 13,6 21,7 16,0 5 3 10 5 NW 1022,0 20 16 0,0
25.05.2017 06:00:00 14,3 11,8 11,7 22,0 16,0 8 4 10 6 NNW 1022,2 19 0 0,0
25.05.2017 05:00:00 15,2 12,0 12,5 22,3 16,0 4 2 7 4 Z 1022,0 28 0 0,0
25.05.2017 04:00:00 15,7 11,5 12,6 22,5 16,0 0 0 9 5 N 1022,0 33 0 0,0
25.05.2017 03:00:00 16,4 11,8 14,2 22,8 16,0 7 4 11 6 NNW 1022,1 40 0 0,0
25.05.2017 02:00:00 17,1 12,2 15,3 23,0 16,0 9 5 12 6 NNW 1022,4 47 0 0,0
25.05.2017 01:00:00 18,2 12,6 17,1 23,3 16,0 6 4 12 7 NNW 1022,7 60 0 0,0
25.05.2017 00:00:00 18,6 12,8 16,4 23,5 15,9 2 1 9 5 W 1022,8 21 0 0,0
24.05.2017 23:00:00 20,4 12,1 18,1 23,6 15,9 9 5 16 9 NO 1022,8 60 0 0,0
24.05.2017 22:00:00 21,5 12,1 20,7 23,8 15,9 7 4 13 7 NW 1022,5 60 0 0,0
24.05.2017 21:00:00 22,2 11,6 21,6 23,9 15,9 9 5 19 11 NW 1022,1 60 7 0,0
24.05.2017 20:00:00 23,0 11,1 23,2 23,8 15,9 8 5 20 11 NNW 1022,1 59 27 0,0
24.05.2017 19:00:00 23,6 10,6 25,3 23,5 15,9 12 7 24 13 NNW 1021,8 43 56 0,0
24.05.2017 18:00:00 24,0 10,3 26,5 23,2 15,9 14 7 27 15 NNW 1022,2 47 49 0,0
24.05.2017 17:00:00 24,5 10,4 29,9 22,6 15,8 13 7 37 20 NNW 1022,5 39 60 0,0
24.05.2017 16:00:00 24,3 10,9 28,6 22,1 15,9 12 6 22 12 NNO 1022,8 59 60 0,0
24.05.2017 15:00:00 23,2 9,9 28,0 21,5 15,8 16 9 28 15 NO 1023,3 28 60 0,0
24.05.2017 14:00:00 22,7 9,1 28,4 20,9 15,8 9 5 23 12 NNO 1023,8 59 60 0,0
24.05.2017 13:00:00 21,6 10,1 26,8 20,5 15,8 6 3 25 13 W 1024,0 53 60 0,0
24.05.2017 12:00:00 21,3 9,5 25,1 20,2 15,8 8 4 27 15 NW 1024,8 18 60 0,0
24.05.2017 11:00:00 20,5 7,8 24,6 20,1 15,7 9 5 26 14 NNO 1025,0 45 60 0,0
24.05.2017 10:00:00 19,5 8,2 23,9 20,1 15,8 3 2 12 6 OZO 1025,1 55 60 0,0
24.05.2017 09:00:00 19,2 8,2 21,2 20,2 15,7 3 2 9 5 N 1025,1 57 53 0,0
24.05.2017 08:00:00 17,7 10,8 17,0 20,4 15,7 2 1 9 5 WNW 1025,0 46 60 0,0
24.05.2017 07:00:00 14,7 9,7 11,4 20,6 15,7 6 3 9 5 WZW 1024,6 39 32 0,0
24.05.2017 06:00:00 12,7 9,5 11,5 20,9 15,7 4 2 10 6 WZW 1024,4 49 0 0,0
24.05.2017 05:00:00 14,7 9,1 11,9 21,2 15,7 6 3 18 10 NNO 1024,1 59 0 0,0
24.05.2017 04:00:00 15,5 10,5 14,0 21,5 15,7 11 6 21 11 NNO 1023,8 51 0 0,0
24.05.2017 03:00:00 16,7 10,5 15,9 21,7 15,7 13 7 26 14 NW 1022,8 57 0 0,0
24.05.2017 02:00:00 17,8 11,4 17,1 22,0 15,6 15 8 27 15 NW 1022,4 57 0 0,0
24.05.2017 01:00:00 18,8 12,1 18,1 22,3 15,6 17 9 26 14 NW 1022,1 57 0 0,0
24.05.2017 00:00:00 19,6 12,6 18,7 22,5 15,6 14 7 27 14 WNW 1021,7 58 0 0,0
23.05.2017 23:00:00 20,1 11,6 19,0 22,7 15,6 14 8 23 13 W 1021,2 60 0 0,0
23.05.2017 22:00:00 21,2 10,7 19,8 22,9 15,6 12 7 28 15 W 1020,7 53 0 0,0
23.05.2017 21:00:00 22,8 12,4 21,9 22,9 15,6 18 10 28 15 WNW 1019,7 53 41 0,0
23.05.2017 20:00:00 24,6 12,2 25,5 22,8 15,6 16 9 35 19 WNW 1019,0 38 60 0,0
23.05.2017 19:00:00 25,8 13,3 26,9 22,6 15,6 22 12 35 19 NW 1018,6 38 53 0,0
23.05.2017 18:00:00 27,1 11,9 28,7 22,3 15,5 18 10 37 20 WNW 1018,1 45 55 0,0
23.05.2017 17:00:00 27,4 12,6 28,1 21,9 15,6 18 10 34 18 WNW 1018,2 58 36 0,0
23.05.2017 16:00:00 27,7 12,5 26,9 21,6 15,5 18 10 34 18 W 1018,0 44 46 0,0
23.05.2017 15:00:00 26,7 12,4 27,0 21,1 15,5 19 11 33 18 NW 1018,1 45 24 0,0
23.05.2017 14:00:00 27,1 10,7 28,9 20,6 15,5 13 7 24 13 NW 1018,0 60 49 0,0
23.05.2017 13:00:00 26,4 9,3 29,8 20,2 15,5 10 6 25 14 ZW 1018,3 48 60 0,0
23.05.2017 12:00:00 25,4 11,9 29,3 19,9 15,5 8 4 30 16 ZW 1018,5 38 60 0,0
23.05.2017 11:00:00 23,9 13,7 28,4 19,7 15,5 8 4 16 9 ZW 1018,6 55 60 0,0
23.05.2017 10:00:00 21,0 13,9 21,0 19,8 15,5 7 4 13 7 Z 1018,7 43 55 0,0
23.05.2017 09:00:00 17,4 12,9 17,1 19,9 15,5 8 4 13 7 Z 1018,8 34 22 0,0
23.05.2017 08:00:00 15,1 12,0 14,6 20,1 15,5 5 3 9 5 ZZW 1018,4 26 0 0,0
23.05.2017 07:00:00 14,0 11,5 12,8 20,3 15,5 3 2 9 5 ZZW 1018,0 24 0 0,0
23.05.2017 06:00:00 13,0 11,2 11,0 20,6 15,5 6 3 10 6 ZW 1017,5 19 0 0,0
23.05.2017 05:00:00 12,8 10,9 10,4 20,9 15,5 3 1 8 4 Z 1017,4 24 0 0,0
23.05.2017 04:00:00 12,8 10,9 10,6 21,2 15,4 4 2 10 5 ZZO 1017,3 25 0 0,0
23.05.2017 03:00:00 13,8 11,1 11,5 21,5 15,5 3 2 6 4 ZW 1017,1 27 0 0,0
23.05.2017 02:00:00 15,2 11,2 12,5 21,8 15,4 5 3 8 4 ZZW 1017,0 36 0 0,0
23.05.2017 01:00:00 15,8 11,8 14,7 22,1 15,4 4 2 10 6 W 1017,2 37 0 0,0
23.05.2017 00:00:00 16,2 11,8 15,0 22,3 15,4 4 2 7 4 W 1016,7 35 0 0,0
22.05.2017 23:00:00 17,7 11,9 15,9 22,5 15,4 4 2 6 4 W 1016,6 42 0 0,0
22.05.2017 22:00:00 18,4 12,2 16,1 22,7 15,4 5 3 6 4 N 1016,3 59 0 0,0
22.05.2017 21:00:00 21,5 11,8 17,3 22,6 15,4 4 2 8 5 ONO 1015,6 59 9 0,0
22.05.2017 20:00:00 23,3 10,0 23,0 22,5 15,4 9 5 15 8 NNO 1015,5 60 42 0,0
22.05.2017 19:00:00 24,2 9,4 24,8 22,1 15,4 10 6 16 9 NNO 1015,4 46 58 0,0
22.05.2017 18:00:00 24,7 9,0 28,7 21,6 15,4 4 2 14 7 W 1015,6 43 60 0,0
22.05.2017 17:00:00 25,2 8,6 30,4 20,9 15,4 5 3 13 7 NW 1015,8 20 60 0,0
22.05.2017 16:00:00 24,7 10,2 29,5 20,2 15,3 4 2 - - ZZO 1016,4 53 - -
22.05.2017 15:00:00 23,8 10,5 29,7 19,5 15,4 7 4 16 8 ZZO 1017,0 19 60 0,0
22.05.2017 14:00:00 23,0 - 29,3 18,8 15,4 5 3 15 8 O - 48 60 -
22.05.2017 13:00:00 22,4 11,5 27,6 18,3 15,4 9 5 16 9 Z 1017,9 32 60 0,0
22.05.2017 12:00:00 21,1 10,9 26,6 17,9 15,4 6 3 12 6 NNW 1018,6 34 60 0,0
22.05.2017 11:00:00 20,0 11,0 - - - 4 2 9 5 NO 1018,9 19 - -
22.05.2017 10:00:00 18,2 10,3 23,5 17,7 15,4 5 3 10 5 N 1019,3 25 60 0,0
22.05.2017 09:00:00 16,1 10,0 19,4 17,9 15,4 5 3 10 6 N 1019,5 20 60 0,0
22.05.2017 08:00:00 14,2 9,0 15,4 18,1 15,4 8 4 11 6 N 1019,8 36 60 0,0
22.05.2017 07:00:00 11,7 9,1 8,3 18,4 15,4 4 2 7 4 NW 1019,9 38 47 0,0
22.05.2017 06:00:00 9,9 7,7 7,9 18,7 15,4 4 2 6 3 WNW 1019,8 43 0 0,0

tt = temperatuur
td = dauwpunt
tt 5cm = temperatuur 5cm
tt -20cm = temperatuur -20cm
tt -100cm = temperatuur -100cm
ff = windsnelheid
fx = windstoten
dd = windrichting
ppp = luchtdruk
vv = zicht
sd = Zonneschijnduur
rr = neerslag

Weerstations in de omgeving